K3BAY-1 Weather Reports


time (UTC)temp
C
wind
direction
speed
KPH
gust
KPH
rain 1hr
cm
rain 24hr
cm
rain mn
cm
humidity
%
barometer
mb
20260504215744 22 345 0.0 1.6 0.00 0.00 0.00 42 1012.6
20260504215240 22 72 0.0 4.8 0.00 0.00 0.00 42 1012.6
20260504214736 22 31 3.2 4.8 0.00 0.00 0.00 41 1012.6
20260504214233 22 38 1.6 4.8 0.00 0.00 0.00 41 1012.6
20260504213730 22 343 6.4 6.4 0.00 0.00 0.00 41 1012.9
20260504213225 23 302 3.2 4.8 0.00 0.00 0.00 41 1012.9
20260504212723 23 286 0.0 3.2 0.00 0.00 0.00 40 1012.6
20260504212214 22 282 1.6 6.4 0.00 0.00 0.00 40 1012.6
20260504211711 22 301 3.2 4.8 0.00 0.00 0.00 41 1012.9
20260504211208 22 326 3.2 9.7 0.00 0.00 0.00 41 1012.9
20260504210705 23 24 4.8 6.4 0.00 0.00 0.00 39 1012.9
20260504210202 22 61 0.0 6.4 0.00 0.00 0.00 39 1012.9
20260504205659 22 6 1.6 11.3 0.00 0.00 0.00 38 1012.9
20260504205156 23 313 3.2 6.4 0.00 0.00 0.00 39 1012.9
20260504204654 23 318 3.2 11.3 0.00 0.00 0.00 39 1012.9
20260504204153 22 318 1.6 4.8 0.00 0.00 0.00 40 1013.2
20260504203651 22 310 1.6 4.8 0.00 0.00 0.00 40 1012.9
20260504203148 23 281 3.2 9.7 0.00 0.00 0.00 38 1013.2
20260504202643 23 299 3.2 9.7 0.00 0.00 0.00 37 1013.2
20260504202140 23 15 1.6 3.2 0.00 0.00 0.00 37 1013.2
20260504201637 23 297 0.0 4.8 0.00 0.00 0.00 38 1013.2
20260504201135 23 43 3.2 3.2 0.00 0.00 0.00 38 1013.6
20260504200632 23 247 0.0 4.8 0.00 0.00 0.00 37 1013.6
20260504200128 23 36 3.2 6.4 0.00 0.00 0.00 38 1013.6
20260504195624 23 295 1.6 11.3 0.00 0.00 0.00 38 1013.6
20260504195121 23 351 0.0 4.8 0.00 0.00 0.00 37 1013.6
20260504194618 23 42 3.2 3.2 0.00 0.00 0.00 37 1013.6
20260504194114 23 291 1.6 4.8 0.00 0.00 0.00 37 1013.6
20260504193610 23 9 1.6 3.2 0.00 0.00 0.00 37 1013.9
20260504193109 23 17 0.0 3.2 0.00 0.00 0.00 37 1013.9
20260504192606 23 107 0.0 4.8 0.00 0.00 0.00 37 1013.9
20260504192104 23 293 0.0 4.8 0.00 0.00 0.00 38 1013.6
20260504191603 23 120 3.2 4.8 0.00 0.00 0.00 37 1014.2
20260504191058 23 313 6.4 9.7 0.00 0.00 0.00 36 1013.9
20260504190554 23 140 0.0 3.2 0.00 0.00 0.00 37 1014.2
20260504190050 22 38 0.0 3.2 0.00 0.00 0.00 38 1014.2
20260504185548 23 346 6.4 6.4 0.00 0.00 0.00 36 1013.9
20260504185044 22 335 3.2 4.8 0.00 0.00 0.00 38 1014.2
20260504184540 22 179 0.0 4.8 0.00 0.00 0.00 37 1014.2
20260504184035 22 215 1.6 3.2 0.00 0.00 0.00 37 1014.2
20260504183533 22 327 1.6 4.8 0.00 0.00 0.00 37 1014.2
20260504183031 23 292 0.0 1.6 0.00 0.00 0.00 36 1014.2
20260504182527 22 274 0.0 6.4 0.00 0.00 0.00 37 1014.2
20260504182025 23 72 0.0 6.4 0.00 0.00 0.00 38 1014.6
20260504181521 22 99 0.0 6.4 0.00 0.00 0.00 37 1014.6
20260504181020 23 46 0.0 4.8 0.00 0.00 0.00 37 1014.6
20260504180518 23 84 0.0 6.4 0.00 0.00 0.00 37 1014.6
20260504180017 23 321 0.0 3.2 0.00 0.00 0.00 38 1014.6
20260504175514 24 47 1.6 4.8 0.00 0.00 0.00 36 1014.6
20260504175011 23 82 0.0 1.6 0.00 0.00 0.00 36 1014.6
20260504174509 23 45 0.0 4.8 0.00 0.00 0.00 37 1014.6
20260504174005 22 31 3.2 3.2 0.00 0.00 0.00 38 1014.6
20260504173502 23 74 1.6 3.2 0.00 0.00 0.00 38 1014.6
20260504173000 24 80 1.6 4.8 0.00 0.00 0.00 35 1014.6
20260504172455 25 58 0.0 3.2 0.00 0.00 0.00 31 1014.9
20260504171952 25 319 0.0 1.6 0.00 0.00 0.00 33 1014.6
20260504171449 25 76 0.0 1.6 0.00 0.00 0.00 32 1014.6
20260504170946 25 73 0.0 1.6 0.00 0.00 0.00 33 1014.6
20260504170442 23 46 1.6 4.8 0.00 0.00 0.00 36 1014.6
20260504160402 23 338 4.8 4.8 0.00 0.00 0.00 32 1014.2
20260504150826 20 160 4.8 4.8 0.00 0.00 0.00 47 1014.2
20260504150322 18 136 1.6 4.8 0.00 0.00 0.00 47 1014.6
20260504141253 18 81 0.0 0.0 0.00 0.00 0.00 47 1014.2
20260504140749 18 80 0.0 0.0 0.00 0.00 0.00 45 1014.2
20260504140245 18 86 0.0 1.6 0.00 0.00 0.00 46 1014.2
20260504130714 16 78 1.6 3.2 0.00 0.00 0.00 52 1014.2
20260504130209 15 83 1.6 4.8 0.00 0.00 0.00 51 1014.2
20260504120133 13 47 1.6 3.2 0.00 0.00 0.00 59 1014.2
20260504110601 11 70 1.6 6.4 0.00 0.00 0.00 67 1014.6
20260504100523 11 79 0.0 0.0 0.00 0.00 0.00 69 1014.2
20260504081916 11 62 0.0 0.0 0.00 0.00 0.00 65 1014.6
20260504081413 11 68 0.0 0.0 0.00 0.00 0.00 65 1014.2
20260504080909 11 75 0.0 0.0 0.00 0.00 0.00 64 1014.2
20260504080406 11 68 0.0 0.0 0.00 0.00 0.00 63 1014.2
20260504070333 10 65 1.6 1.6 0.00 0.00 0.00 62 1014.2
20260504050721 10 73 0.0 0.0 0.00 0.00 0.00 60 1013.9
20260504050218 10 66 0.0 0.0 0.00 0.00 0.00 60 1013.9
20260504045716 10 64 0.0 0.0 0.00 0.00 0.00 58 1013.9
20260504045215 10 72 0.0 1.6 0.00 0.00 0.00 59 1013.9
20260504044714 10 68 0.0 0.0 0.00 0.00 0.00 61 1013.9
20260504044211 10 51 0.0 1.6 0.00 0.00 0.00 58 1013.6
20260504043708 10 77 0.0 1.6 0.00 0.00 0.00 58 1013.6
20260504043204 10 21 1.6 1.6 0.00 0.00 0.00 59 1013.6
20260504042702 10 82 0.0 3.2 0.00 0.00 0.00 60 1013.6
20260504042158 10 0 0.0 1.6 0.00 0.00 0.00 60 1013.6
20260504041654 10 81 1.6 3.2 0.00 0.00 0.00 59 1013.6
20260504041150 10 36 0.0 3.2 0.00 0.00 0.00 60 1013.9
20260504040648 10 10 0.0 1.6 0.00 0.00 0.00 61 1013.6
20260504040144 10 56 0.0 1.6 0.00 0.00 0.00 61 1013.2
20260504035641 10 74 0.0 0.0 0.00 0.00 0.00 61 1013.6
20260504035138 10 70 3.2 4.8 0.00 0.00 0.00 59 1013.6
20260504034636 10 77 0.0 1.6 0.00 0.00 0.00 58 1013.2
20260504034132 10 56 0.0 1.6 0.00 0.00 0.00 61 1013.2
20260504033630 10 31 0.0 1.6 0.00 0.00 0.00 64 1013.2
20260504033127 9 84 0.0 0.0 0.00 0.00 0.00 66 1013.2
20260504032624 9 81 0.0 0.0 0.00 0.00 0.00 64 1013.2
20260504032121 8 81 0.0 0.0 0.00 0.00 0.00 67 1013.2
20260504031618 8 82 0.0 0.0 0.00 0.00 0.00 67 1012.9
20260504031114 8 85 0.0 0.0 0.00 0.00 0.00 64 1012.9
20260504030611 8 85 0.0 0.0 0.00 0.00 0.00 65 1012.9
20260504030108 8 82 0.0 0.0 0.00 0.00 0.00 68 1013.2
20260504025605 8 82 0.0 0.0 0.00 0.00 0.00 68 1013.2
20260504025102 8 82 0.0 0.0 0.00 0.00 0.00 68 1012.9
20260504024559 8 84 0.0 0.0 0.00 0.00 0.00 68 1012.9
20260504024055 8 79 0.0 0.0 0.00 0.00 0.00 67 1012.6
20260504023552 8 78 0.0 0.0 0.00 0.00 0.00 66 1012.6
20260504023048 8 85 0.0 0.0 0.00 0.00 0.00 65 1012.6
20260504022544 8 81 0.0 0.0 0.00 0.00 0.00 65 1012.6
20260504022040 8 81 0.0 0.0 0.00 0.00 0.00 64 1012.6
20260504021538 8 81 0.0 0.0 0.00 0.00 0.00 63 1012.9
20260504021035 8 79 0.0 0.0 0.00 0.00 0.00 62 1012.6
20260504020532 8 81 0.0 0.0 0.00 0.00 0.00 61 1012.9
20260504020028 8 80 0.0 0.0 0.00 0.00 0.00 61 1012.6
20260504015525 9 81 0.0 0.0 0.00 0.00 0.00 60 1012.9
20260504015021 9 81 0.0 0.0 0.00 0.00 0.00 61 1012.9
20260504014517 9 81 0.0 0.0 0.00 0.00 0.00 60 1012.9
20260504014014 9 81 0.0 0.0 0.00 0.00 0.00 60 1012.9
20260504013512 9 81 0.0 0.0 0.00 0.00 0.00 59 1012.9
20260504013009 9 82 0.0 0.0 0.00 0.00 0.00 59 1012.9
20260504012506 10 77 0.0 0.0 0.00 0.00 0.00 59 1013.2
20260504012004 10 81 0.0 0.0 0.00 0.00 0.00 56 1012.9
20260504011500 10 79 0.0 0.0 0.00 0.00 0.00 56 1013.2
20260504010956 10 80 0.0 0.0 0.00 0.00 0.00 56 1013.2
20260504010452 10 81 0.0 0.0 0.00 0.00 0.00 55 1012.9
20260504005948 10 80 0.0 0.0 0.00 0.00 0.00 54 1012.9
20260504005445 10 81 0.0 0.0 0.00 0.00 0.00 53 1012.9
20260504004943 11 81 0.0 0.0 0.00 0.00 0.00 51 1012.9
20260504004440 11 83 0.0 0.0 0.00 0.00 0.00 51 1012.9
20260504003937 11 83 0.0 0.0 0.00 0.00 0.00 50 1012.9
20260504003433 11 77 0.0 0.0 0.00 0.00 0.00 49 1012.9
20260504002930 11 82 0.0 0.0 0.00 0.00 0.00 51 1012.9
20260504002427 12 80 0.0 0.0 0.00 0.00 0.00 50 1013.2
20260504001925 12 81 0.0 0.0 0.00 0.00 0.00 49 1013.2
20260504001422 12 82 0.0 0.0 0.00 0.00 0.00 47 1013.2
20260504000918 12 72 0.0 0.0 0.00 0.00 0.00 48 1013.2
20260504000416 13 74 0.0 0.0 0.00 0.00 0.00 46 1013.2
20260503235913 13 81 0.0 0.0 0.00 0.00 0.00 46 1013.2
20260503235411 13 80 0.0 0.0 0.00 0.00 0.00 45 1013.2
20260503234908 15 83 0.0 0.0 0.00 0.00 0.00 42 1013.2
20260503234405 15 82 0.0 0.0 0.00 0.00 0.00 40 1013.6
20260503233903 15 87 0.0 0.0 0.00 0.00 0.00 37 1013.2
20260503233359 16 69 0.0 0.0 0.00 0.00 0.00 36 1013.6
20260503232856 16 24 0.0 0.0 0.00 0.00 0.00 35 1013.2
20260503232353 16 86 0.0 9.7 0.00 0.00 0.00 35 1013.6
20260503231851 16 79 0.0 0.0 0.00 0.00 0.00 35 1013.6
20260503231347 17 65 0.0 0.0 0.00 0.00 0.00 34 1013.6
20260503230844 17 87 1.6 4.8 0.00 0.00 0.00 31 1013.6
20260503230340 18 57 0.0 3.2 0.00 0.00 0.00 32 1013.2
20260503225839 18 76 0.0 0.0 0.00 0.00 0.00 32 1013.2
20260503225334 17 78 0.0 0.0 0.00 0.00 0.00 32 1013.2
20260503224831 17 63 0.0 3.2 0.00 0.00 0.00 32 1013.6
20260503224328 17 83 0.0 3.2 0.00 0.00 0.00 33 1013.6
20260503223826 18 54 0.0 6.4 0.00 0.00 0.00 31 1013.6
20260503223323 18 52 0.0 0.0 0.00 0.00 0.00 31 1013.6
20260503222819 18 44 1.6 6.4 0.00 0.00 0.00 30 1013.6
20260503222317 17 100 0.0 9.7 0.00 0.00 0.00 30 1013.6
20260503221815 18 49 0.0 11.3 0.00 0.00 0.00 31 1013.6
20260503221314 18 82 3.2 9.7 0.00 0.00 0.00 33 1013.6
20260503220809 17 56 1.6 11.3 0.00 0.00 0.00 32 1013.9
20260503220306 18 71 1.6 3.2 0.00 0.00 0.00 30 1013.6